Weather in Boyarovka

Russia / Tyva Republic     51°32′17″N   95°21′16″E
temp.,
°C
wind,
m/s
gust,
m/s
humid.,
%
clouds,
%
prec.,
mm/h
press.,
hPa
HPBL,
m
3 march, wed
wed301:00−12ne2295100 0.4 101721
04:00−10sw1196100 0.4 101626
07:00−11wnw1197100 1.2 101621
10:00−9wnw1193100 0.1 1015105
13:00−7n1191100 0.1 1014208
16:00−6w129187 0.0 1015130
19:00−11w129491 0.0 101821
22:00−14sw009891 0.0 102221
4 march, thu
thu401:00−15sse009981 0.0 102520
04:00−17ese119992 0.0 102720
07:00−18e119995 0.1 103020
10:00−13ese119293 0.0 103186
13:00−9nne018660 0.0 1030254
16:00−8nne119119 0.0 102983
19:00−14e009610 0.0 103221
22:00−15ese11930 0.0 103421
5 march, fri
fri501:00−16ese22940 0.0 103420
04:00−17ese22910 0.0 103320
07:00−18se22861 0.0 103420
10:00−14ese228611 0.0 1030105
13:00−9ese227653 0.0 1027246
16:00−8wnw228687 0.0 1024106
19:00−10w129094 0.1 102821
22:00−12nw1188100 0.0 103121
6 march, sat
sat601:00−13s1189100 0.0 103321
04:00−17e119517 0.0 103320
07:00−16se119617 0.0 103520
10:00−11ese009261 0.0 103359
13:00−8nnw119056 0.0 1030173
16:00−8nw119163 0.0 102788
19:00−13wnw009336 0.0 102821
22:00−14ne009216 0.0 102921
7 march, sun
sun701:00−15ese00977 0.0 102821
04:00−16se009964 0.0 102820
07:00−16ene0010081 0.0 102920
10:00−11ne009484 0.0 102859
13:00−8nw119074 0.0 1026158
16:00−8nw119124 0.0 102486
19:00−13w008947 0.0 102721
22:00−14ese00880 0.0 102921